| time (UTC) | temp F | wind direction | speed MPH | gust MPH | rain 1hr in | rain 24hr in | rain mn in | humidity % | barometer mb |
| 20260508065337 | 74 | 250 | 0.0 | 1.0 | 0.00 | 0.00 | 0.00 | 87 | 1015.3 |
| 20260508064838 | 74 | 248 | 0.0 | 2.0 | 0.00 | 0.00 | 0.00 | 87 | 1015.4 |
| 20260508064339 | 74 | 248 | 0.0 | 2.0 | 0.00 | 0.00 | 0.00 | 87 | 1015.4 |
| 20260508063839 | 74 | 257 | 1.0 | 2.0 | 0.00 | 0.00 | 0.00 | 87 | 1015.5 |
| 20260508063341 | 74 | 279 | 0.0 | 1.0 | 0.00 | 0.00 | 0.00 | 87 | 1015.5 |
| 20260508062847 | 74 | 282 | 0.0 | 2.0 | 0.00 | 0.00 | 0.00 | 86 | 1015.6 |
| 20260508062346 | 74 | 290 | 0.0 | 2.0 | 0.00 | 0.00 | 0.00 | 86 | 1015.6 |
| 20260508061848 | 75 | 340 | 0.0 | 2.0 | 0.00 | 0.00 | 0.00 | 86 | 1015.6 |
| 20260508061350 | 75 | 296 | 0.0 | 3.0 | 0.00 | 0.00 | 0.00 | 86 | 1015.6 |
| 20260508060850 | 75 | 251 | 0.0 | 2.0 | 0.00 | 0.00 | 0.00 | 85 | 1015.6 |
| 20260508060348 | 75 | 247 | 0.0 | 2.0 | 0.00 | 0.00 | 0.00 | 85 | 1015.6 |
| 20260508055848 | 75 | 238 | 0.0 | 3.0 | 0.00 | 0.00 | 0.00 | 85 | 1015.7 |
| 20260508055347 | 75 | 235 | 0.0 | 3.0 | 0.00 | 0.00 | 0.00 | 85 | 1015.8 |
| 20260508054827 | 75 | 251 | 0.0 | 2.0 | 0.00 | 0.00 | 0.00 | 84 | 1015.9 |
| 20260508054328 | 75 | 242 | 0.0 | 2.0 | 0.00 | 0.00 | 0.00 | 84 | 1015.8 |
| 20260508053827 | 75 | 244 | 0.0 | 2.0 | 0.00 | 0.00 | 0.00 | 83 | 1015.9 |
| 20260508053330 | 75 | 257 | 0.0 | 2.0 | 0.00 | 0.00 | 0.00 | 83 | 1015.9 |
| 20260508052831 | 75 | 253 | 0.0 | 2.0 | 0.00 | 0.00 | 0.00 | 83 | 1016.0 |
| 20260508052340 | 75 | 248 | 0.0 | 3.0 | 0.00 | 0.00 | 0.00 | 82 | 1015.9 |
| 20260508051843 | 75 | 269 | 0.0 | 3.0 | 0.00 | 0.00 | 0.00 | 82 | 1015.9 |
| 20260508051344 | 76 | 262 | 0.0 | 3.0 | 0.00 | 0.00 | 0.00 | 82 | 1016.0 |
| 20260508050845 | 76 | 284 | 1.0 | 3.0 | 0.00 | 0.00 | 0.00 | 82 | 1016.0 |
| 20260508050343 | 76 | 242 | 1.0 | 3.0 | 0.00 | 0.00 | 0.00 | 81 | 1016.0 |
| 20260508045843 | 76 | 250 | 1.0 | 4.0 | 0.00 | 0.00 | 0.00 | 81 | 1016.0 |
| 20260508045343 | 76 | 263 | 1.0 | 4.0 | 0.00 | 0.00 | 0.00 | 80 | 1016.0 |
| 20260508044846 | 76 | 240 | 1.0 | 3.0 | 0.00 | 0.00 | 0.00 | 80 | 1016.0 |
| 20260508044346 | 76 | 267 | 0.0 | 3.0 | 0.00 | 0.00 | 0.00 | 79 | 1016.1 |
| 20260508043848 | 76 | 259 | 1.0 | 3.0 | 0.00 | 0.00 | 0.00 | 79 | 1016.1 |
| 20260508043357 | 76 | 275 | 0.0 | 4.0 | 0.00 | 0.00 | 0.00 | 79 | 1016.2 |
| 20260508042835 | 76 | 273 | 1.0 | 4.0 | 0.00 | 0.00 | 0.00 | 78 | 1016.2 |
| 20260508042336 | 76 | 321 | 1.0 | 3.0 | 0.00 | 0.00 | 0.00 | 78 | 1016.1 |
| 20260508041906 | 77 | 257 | 1.0 | 4.0 | 0.00 | 0.00 | 0.00 | 77 | 1016.1 |
| 20260508041347 | 77 | 251 | 0.0 | 4.0 | 0.00 | 0.00 | 0.00 | 77 | 1016.1 |
| 20260508040843 | 77 | 231 | 1.0 | 3.0 | 0.00 | 0.00 | 0.00 | 77 | 1016.1 |
| 20260508040344 | 77 | 242 | 2.0 | 4.0 | 0.00 | 0.00 | 0.00 | 77 | 1016.2 |
| 20260508035842 | 77 | 248 | 0.0 | 4.0 | 0.00 | 0.00 | 0.00 | 76 | 1016.1 |
| 20260508035340 | 77 | 261 | 0.0 | 3.0 | 0.00 | 0.00 | 0.00 | 76 | 1016.2 |
| 20260508034841 | 77 | 272 | 0.0 | 5.0 | 0.00 | 0.00 | 0.00 | 76 | 1016.2 |
| 20260508034342 | 77 | 260 | 0.0 | 8.0 | 0.00 | 0.00 | 0.00 | 76 | 1016.1 |
| 20260508033843 | 77 | 331 | 1.0 | 8.0 | 0.00 | 0.00 | 0.00 | 75 | 1016.1 |
| 20260508033346 | 77 | 264 | 1.0 | 3.0 | 0.00 | 0.00 | 0.00 | 75 | 1016.0 |
| 20260508032850 | 78 | 267 | 1.0 | 3.0 | 0.00 | 0.00 | 0.00 | 75 | 1016.0 |
| 20260508032347 | 78 | 300 | 0.0 | 2.0 | 0.00 | 0.00 | 0.00 | 74 | 1016.1 |
| 20260508031853 | 78 | 259 | 1.0 | 3.0 | 0.00 | 0.00 | 0.00 | 74 | 1016.0 |
| 20260508031353 | 78 | 259 | 1.0 | 3.0 | 0.00 | 0.00 | 0.00 | 74 | 1015.9 |
| 20260508030848 | 78 | 263 | 2.0 | 5.0 | 0.00 | 0.00 | 0.00 | 74 | 1015.8 |
| 20260508030349 | 78 | 252 | 3.0 | 5.0 | 0.00 | 0.00 | 0.00 | 73 | 1015.8 |
| 20260508025827 | 79 | 255 | 2.0 | 7.0 | 0.00 | 0.00 | 0.00 | 73 | 1015.8 |
| 20260508025329 | 79 | 252 | 3.0 | 7.0 | 0.00 | 0.00 | 0.00 | 72 | 1015.8 |
| 20260508024828 | 79 | 238 | 1.0 | 5.0 | 0.00 | 0.00 | 0.00 | 72 | 1015.8 |
| 20260508024328 | 79 | 231 | 2.0 | 7.0 | 0.00 | 0.00 | 0.00 | 71 | 1015.7 |
| 20260508023828 | 79 | 267 | 2.0 | 7.0 | 0.00 | 0.00 | 0.00 | 71 | 1015.7 |
| 20260508023329 | 80 | 242 | 2.0 | 7.0 | 0.00 | 0.00 | 0.00 | 70 | 1015.6 |
| 20260508022857 | 80 | 243 | 3.0 | 9.0 | 0.00 | 0.00 | 0.00 | 70 | 1015.6 |
| 20260508022406 | 80 | 252 | 2.0 | 9.0 | 0.00 | 0.00 | 0.00 | 69 | 1015.6 |
| 20260508021828 | 80 | 243 | 2.0 | 10.0 | 0.00 | 0.00 | 0.00 | 69 | 1015.6 |
| 20260508021332 | 80 | 263 | 6.0 | 10.0 | 0.00 | 0.00 | 0.00 | 68 | 1015.5 |
| 20260508020830 | 81 | 275 | 2.0 | 9.0 | 0.00 | 0.00 | 0.00 | 67 | 1015.5 |
| 20260508020334 | 81 | 294 | 3.0 | 9.0 | 0.00 | 0.00 | 0.00 | 66 | 1015.4 |
| 20260508015835 | 81 | 251 | 2.0 | 4.0 | 0.00 | 0.00 | 0.00 | 64 | 1015.5 |
| 20260508015336 | 81 | 261 | 1.0 | 4.0 | 0.00 | 0.00 | 0.00 | 64 | 1015.3 |
| 20260508014835 | 81 | 257 | 2.0 | 5.0 | 0.00 | 0.00 | 0.00 | 63 | 1015.3 |
| 20260508014339 | 82 | 271 | 3.0 | 5.0 | 0.00 | 0.00 | 0.00 | 63 | 1015.3 |
| 20260508013842 | 82 | 288 | 1.0 | 10.0 | 0.00 | 0.00 | 0.00 | 62 | 1015.3 |
| 20260508013346 | 82 | 221 | 3.0 | 10.0 | 0.00 | 0.00 | 0.00 | 61 | 1015.2 |
| 20260508012848 | 82 | 249 | 3.0 | 7.0 | 0.00 | 0.00 | 0.00 | 60 | 1015.1 |
| 20260508012358 | 82 | 266 | 2.0 | 5.0 | 0.00 | 0.00 | 0.00 | 58 | 1015.1 |
| 20260508011841 | 82 | 248 | 1.0 | 5.0 | 0.00 | 0.00 | 0.00 | 58 | 1015.0 |
| 20260508011345 | 83 | 267 | 2.0 | 6.0 | 0.00 | 0.00 | 0.00 | 57 | 1015.0 |
| 20260508010827 | 83 | 265 | 2.0 | 7.0 | 0.00 | 0.00 | 0.00 | 56 | 1014.9 |
| 20260508010327 | 83 | 262 | 3.0 | 7.0 | 0.00 | 0.00 | 0.00 | 55 | 1014.9 |
| 20260508005828 | 83 | 268 | 2.0 | 6.0 | 0.00 | 0.00 | 0.00 | 54 | 1014.9 |
| 20260508005329 | 84 | 259 | 3.0 | 6.0 | 0.00 | 0.00 | 0.00 | 52 | 1014.9 |
| 20260508004832 | 84 | 253 | 2.0 | 5.0 | 0.00 | 0.00 | 0.00 | 51 | 1015.0 |
| 20260508004335 | 84 | 258 | 1.0 | 5.0 | 0.00 | 0.00 | 0.00 | 51 | 1014.9 |
| 20260508003838 | 84 | 325 | 2.0 | 7.0 | 0.00 | 0.00 | 0.00 | 50 | 1014.9 |
| 20260508003347 | 85 | 255 | 1.0 | 7.0 | 0.00 | 0.00 | 0.00 | 49 | 1014.9 |
| 20260508002827 | 85 | 268 | 2.0 | 7.0 | 0.00 | 0.00 | 0.00 | 48 | 1014.9 |
| 20260508002328 | 85 | 238 | 2.0 | 6.0 | 0.00 | 0.00 | 0.00 | 46 | 1014.8 |
| 20260508001831 | 85 | 252 | 2.0 | 5.0 | 0.00 | 0.00 | 0.00 | 45 | 1014.9 |
| 20260508001334 | 86 | 239 | 2.0 | 5.0 | 0.00 | 0.00 | 0.00 | 44 | 1014.7 |
| 20260508000833 | 86 | 271 | 2.0 | 8.0 | 0.00 | 0.00 | 0.00 | 43 | 1014.7 |
| 20260508000357 | 86 | 241 | 4.0 | 8.0 | 0.00 | 0.00 | 0.00 | 42 | 1014.6 |
| 20260507235906 | 87 | 256 | 2.0 | 6.0 | 0.00 | 0.00 | 0.00 | 41 | 1014.6 |
| 20260507235346 | 87 | 242 | 2.0 | 7.0 | 0.00 | 0.00 | 0.00 | 40 | 1014.6 |
| 20260507234828 | 87 | 213 | 2.0 | 7.0 | 0.00 | 0.00 | 0.00 | 38 | 1014.6 |
| 20260507234331 | 88 | 248 | 3.0 | 12.0 | 0.00 | 0.00 | 0.00 | 38 | 1014.6 |
| 20260507233830 | 88 | 248 | 2.0 | 12.0 | 0.00 | 0.00 | 0.00 | 38 | 1014.6 |
| 20260507233333 | 88 | 256 | 3.0 | 8.0 | 0.00 | 0.00 | 0.00 | 38 | 1014.5 |
| 20260507232834 | 89 | 242 | 3.0 | 8.0 | 0.00 | 0.00 | 0.00 | 37 | 1014.5 |
| 20260507232337 | 89 | 250 | 2.0 | 9.0 | 0.00 | 0.00 | 0.00 | 37 | 1014.5 |
| 20260507231840 | 89 | 259 | 4.0 | 10.0 | 0.00 | 0.00 | 0.00 | 36 | 1014.5 |
| 20260507231343 | 90 | 254 | 4.0 | 10.0 | 0.00 | 0.00 | 0.00 | 36 | 1014.5 |
| 20260507230846 | 90 | 253 | 4.0 | 12.0 | 0.00 | 0.00 | 0.00 | 35 | 1014.4 |
| 20260507230331 | 90 | 298 | 5.0 | 12.0 | 0.00 | 0.00 | 0.00 | 35 | 1014.4 |
| 20260507225829 | 91 | 279 | 2.0 | 12.0 | 0.00 | 0.00 | 0.00 | 34 | 1014.4 |
| 20260507225331 | 91 | 284 | 4.0 | 10.0 | 0.00 | 0.00 | 0.00 | 34 | 1014.5 |
| 20260507224834 | 91 | 282 | 2.0 | 6.0 | 0.00 | 0.00 | 0.00 | 32 | 1014.5 |
| 20260507224337 | 92 | 259 | 3.0 | 7.0 | 0.00 | 0.00 | 0.00 | 31 | 1014.5 |
| 20260507223846 | 92 | 257 | 2.0 | 10.0 | 0.00 | 0.00 | 0.00 | 30 | 1014.5 |
| 20260507223348 | 92 | 310 | 4.0 | 10.0 | 0.00 | 0.00 | 0.00 | 29 | 1014.4 |
| 20260507222850 | 93 | 297 | 3.0 | 10.0 | 0.00 | 0.00 | 0.00 | 30 | 1014.4 |
| 20260507222331 | 93 | 323 | 3.0 | 12.0 | 0.00 | 0.00 | 0.00 | 30 | 1014.3 |
| 20260507221833 | 93 | 292 | 5.0 | 11.0 | 0.00 | 0.00 | 0.00 | 31 | 1014.3 |
| 20260507221403 | 93 | 268 | 3.0 | 11.0 | 0.00 | 0.00 | 0.00 | 34 | 1014.2 |
| 20260507220845 | 93 | 288 | 5.0 | 12.0 | 0.00 | 0.00 | 0.00 | 33 | 1014.3 |
| 20260507220343 | 93 | 262 | 5.0 | 12.0 | 0.00 | 0.00 | 0.00 | 34 | 1014.2 |
| 20260507215850 | 94 | 306 | 6.0 | 14.0 | 0.00 | 0.00 | 0.00 | 33 | 1014.3 |
| 20260507215352 | 94 | 267 | 5.0 | 13.0 | 0.00 | 0.00 | 0.00 | 35 | 1014.2 |
| 20260507214856 | 95 | 280 | 5.0 | 11.0 | 0.00 | 0.00 | 0.00 | 36 | 1014.2 |
| 20260507212823 | 95 | 294 | 4.0 | 17.0 | 0.00 | 0.00 | 0.00 | 39 | 1014.1 |
| 20260507212325 | 95 | 338 | 9.0 | 17.0 | 0.00 | 0.00 | 0.00 | 39 | 1014.2 |
| 20260507211826 | 96 | 245 | 5.0 | 15.0 | 0.00 | 0.00 | 0.00 | 40 | 1014.2 |
| 20260507211327 | 97 | 278 | 5.0 | 13.0 | 0.00 | 0.00 | 0.00 | 39 | 1014.1 |
| 20260507210831 | 97 | 288 | 5.0 | 13.0 | 0.00 | 0.00 | 0.00 | 37 | 1014.0 |
| 20260507210401 | 97 | 309 | 4.0 | 10.0 | 0.00 | 0.00 | 0.00 | 33 | 1014.0 |
| 20260507205843 | 97 | 223 | 4.0 | 8.0 | 0.00 | 0.00 | 0.00 | 33 | 1014.1 |
| 20260507205341 | 97 | 256 | 3.0 | 9.0 | 0.00 | 0.00 | 0.00 | 33 | 1014.1 |
| 20260507204843 | 97 | 208 | 2.0 | 13.0 | 0.00 | 0.00 | 0.00 | 32 | 1014.0 |
| 20260507204344 | 98 | 221 | 6.0 | 13.0 | 0.00 | 0.00 | 0.00 | 32 | 1014.2 |
| 20260507203827 | 98 | 242 | 2.0 | 10.0 | 0.00 | 0.00 | 0.00 | 31 | 1014.1 |
| 20260507203328 | 98 | 186 | 2.0 | 6.0 | 0.00 | 0.00 | 0.00 | 31 | 1014.3 |
| 20260507202829 | 98 | 275 | 3.0 | 11.0 | 0.00 | 0.00 | 0.00 | 32 | 1014.3 |
| 20260507202358 | 98 | 227 | 4.0 | 11.0 | 0.00 | 0.00 | 0.00 | 33 | 1014.3 |
| 20260507201838 | 98 | 227 | 3.0 | 7.0 | 0.00 | 0.00 | 0.00 | 33 | 1014.4 |
| 20260507201339 | 97 | 273 | 2.0 | 11.0 | 0.00 | 0.00 | 0.00 | 33 | 1014.4 |
| 20260507200840 | 97 | 238 | 3.0 | 11.0 | 0.00 | 0.00 | 0.00 | 32 | 1014.6 |
| 20260507200342 | 97 | 182 | 2.0 | 11.0 | 0.00 | 0.00 | 0.00 | 32 | 1014.6 |
| 20260507195843 | 97 | 205 | 3.0 | 10.0 | 0.00 | 0.00 | 0.00 | 32 | 1014.7 |
| 20260507195324 | 98 | 197 | 3.0 | 9.0 | 0.00 | 0.00 | 0.00 | 31 | 1014.8 |
| 20260507194824 | 98 | 219 | 3.0 | 8.0 | 0.00 | 0.00 | 0.00 | 31 | 1014.9 |
| 20260507194326 | 97 | 267 | 2.0 | 7.0 | 0.00 | 0.00 | 0.00 | 34 | 1014.9 |
| 20260507193827 | 97 | 199 | 2.0 | 9.0 | 0.00 | 0.00 | 0.00 | 34 | 1015.0 |
| 20260507193331 | 96 | 217 | 3.0 | 12.0 | 0.00 | 0.00 | 0.00 | 33 | 1015.0 |
| 20260507192832 | 96 | 275 | 5.0 | 14.0 | 0.00 | 0.00 | 0.00 | 32 | 1015.1 |
| 20260507192401 | 97 | 196 | 5.0 | 14.0 | 0.00 | 0.00 | 0.00 | 31 | 1015.1 |
| 20260507191839 | 96 | 251 | 1.0 | 9.0 | 0.00 | 0.00 | 0.00 | 35 | 1015.1 |
| 20260507191339 | 96 | 256 | 4.0 | 9.0 | 0.00 | 0.00 | 0.00 | 35 | 1015.2 |
| 20260507190838 | 96 | 221 | 3.0 | 11.0 | 0.00 | 0.00 | 0.00 | 34 | 1015.3 |
| 20260507190339 | 96 | 245 | 5.0 | 11.0 | 0.00 | 0.00 | 0.00 | 34 | 1015.5 |
| 20260507185841 | 96 | 221 | 3.0 | 8.0 | 0.00 | 0.00 | 0.00 | 35 | 1015.5 |
| 20260507185341 | 96 | 252 | 4.0 | 11.0 | 0.00 | 0.00 | 0.00 | 34 | 1015.8 |
| 20260507184839 | 95 | 309 | 4.0 | 12.0 | 0.00 | 0.00 | 0.00 | 34 | 1015.9 |
| 20260507184342 | 95 | 242 | 5.0 | 10.0 | 0.00 | 0.00 | 0.00 | 35 | 1015.9 |
| 20260507183823 | 95 | 28 | 3.0 | 13.0 | 0.00 | 0.00 | 0.00 | 35 | 1015.9 |
| 20260507183325 | 95 | 244 | 6.0 | 12.0 | 0.00 | 0.00 | 0.00 | 36 | 1016.0 |
| 20260507182824 | 96 | 240 | 4.0 | 9.0 | 0.00 | 0.00 | 0.00 | 38 | 1016.1 |
| 20260507182331 | 95 | 285 | 3.0 | 12.0 | 0.00 | 0.00 | 0.00 | 34 | 1016.4 |
| 20260507181838 | 95 | 230 | 6.0 | 12.0 | 0.00 | 0.00 | 0.00 | 37 | 1016.4 |
| 20260507181337 | 95 | 188 | 5.0 | 13.0 | 0.00 | 0.00 | 0.00 | 38 | 1016.4 |
| 20260507180839 | 95 | 254 | 3.0 | 13.0 | 0.00 | 0.00 | 0.00 | 40 | 1016.5 |
| 20260507180340 | 95 | 266 | 5.0 | 10.0 | 0.00 | 0.00 | 0.00 | 38 | 1016.5 |
| 20260507175907 | 95 | 181 | 5.0 | 15.0 | 0.00 | 0.00 | 0.00 | 39 | 1016.7 |
| 20260507175344 | 95 | 271 | 1.0 | 12.0 | 0.00 | 0.00 | 0.00 | 40 | 1016.7 |
| 20260507174844 | 95 | 235 | 5.0 | 12.0 | 0.00 | 0.00 | 0.00 | 39 | 1016.8 |
| 20260507174345 | 94 | 338 | 4.0 | 12.0 | 0.00 | 0.00 | 0.00 | 40 | 1016.7 |
| 20260507173847 | 94 | 262 | 6.0 | 12.0 | 0.00 | 0.00 | 0.00 | 39 | 1016.7 |
| 20260507173350 | 95 | 244 | 6.0 | 10.0 | 0.00 | 0.00 | 0.00 | 40 | 1016.8 |
| 20260507172851 | 94 | 306 | 5.0 | 12.0 | 0.00 | 0.00 | 0.00 | 41 | 1016.8 |
| 20260507172349 | 94 | 238 | 3.0 | 12.0 | 0.00 | 0.00 | 0.00 | 40 | 1016.7 |
| 20260507171849 | 94 | 260 | 4.0 | 11.0 | 0.00 | 0.00 | 0.00 | 42 | 1016.7 |
| 20260507171349 | 94 | 167 | 4.0 | 12.0 | 0.00 | 0.00 | 0.00 | 43 | 1016.6 |
| 20260507170830 | 93 | 278 | 6.0 | 12.0 | 0.00 | 0.00 | 0.00 | 41 | 1016.7 |
| 20260507170330 | 93 | 275 | 4.0 | 12.0 | 0.00 | 0.00 | 0.00 | 41 | 1016.7 |
| 20260507165829 | 93 | 225 | 6.0 | 12.0 | 0.00 | 0.00 | 0.00 | 43 | 1016.8 |
| 20260507165325 | 93 | 305 | 3.0 | 12.0 | 0.00 | 0.00 | 0.00 | 43 | 1016.7 |
| 20260507164827 | 93 | 248 | 4.0 | 12.0 | 0.00 | 0.00 | 0.00 | 43 | 1016.8 |
| 20260507164328 | 92 | 213 | 4.0 | 14.0 | 0.00 | 0.00 | 0.00 | 44 | 1016.9 |
| 20260507163859 | 92 | 272 | 6.0 | 14.0 | 0.00 | 0.00 | 0.00 | 45 | 1016.8 |
| 20260507163340 | 92 | 250 | 6.0 | 12.0 | 0.00 | 0.00 | 0.00 | 45 | 1016.9 |
| 20260507162841 | 92 | 244 | 4.0 | 9.0 | 0.00 | 0.00 | 0.00 | 45 | 1016.9 |
| 20260507162340 | 92 | 190 | 2.0 | 11.0 | 0.00 | 0.00 | 0.00 | 46 | 1016.9 |
| 20260507161841 | 92 | 188 | 3.0 | 11.0 | 0.00 | 0.00 | 0.00 | 46 | 1016.9 |
| 20260507161342 | 91 | 283 | 2.0 | 9.0 | 0.00 | 0.00 | 0.00 | 47 | 1017.0 |
| 20260507160824 | 91 | 197 | 3.0 | 11.0 | 0.00 | 0.00 | 0.00 | 47 | 1017.1 |
| 20260507160327 | 90 | 197 | 3.0 | 11.0 | 0.00 | 0.00 | 0.00 | 48 | 1017.2 |
| 20260507155827 | 90 | 267 | 5.0 | 9.0 | 0.00 | 0.00 | 0.00 | 48 | 1017.3 |
| 20260507155332 | 89 | 259 | 2.0 | 10.0 | 0.00 | 0.00 | 0.00 | 51 | 1017.2 |
| 20260507154855 | 89 | 153 | 2.0 | 10.0 | 0.00 | 0.00 | 0.00 | 50 | 1017.3 |
| 20260507154404 | 89 | 175 | 1.0 | 9.0 | 0.00 | 0.00 | 0.00 | 51 | 1017.4 |
| 20260507153824 | 88 | 251 | 3.0 | 9.0 | 0.00 | 0.00 | 0.00 | 50 | 1017.5 |
| 20260507153355 | 88 | 231 | 4.0 | 12.0 | 0.00 | 0.00 | 0.00 | 50 | 1017.5 |
| 20260507152835 | 88 | 154 | 5.0 | 12.0 | 0.00 | 0.00 | 0.00 | 49 | 1017.6 |
| 20260507152336 | 88 | 254 | 2.0 | 9.0 | 0.00 | 0.00 | 0.00 | 50 | 1017.5 |
| 20260507151843 | 87 | 250 | 1.0 | 13.0 | 0.00 | 0.00 | 0.00 | 54 | 1017.5 |
| 20260507151343 | 87 | 279 | 6.0 | 13.0 | 0.00 | 0.00 | 0.00 | 53 | 1017.6 |
| 20260507150844 | 87 | 277 | 2.0 | 9.0 | 0.00 | 0.00 | 0.00 | 56 | 1017.5 |
| 20260507150324 | 86 | 257 | 4.0 | 9.0 | 0.00 | 0.00 | 0.00 | 57 | 1017.6 |
| 20260507145850 | 86 | 173 | 3.0 | 8.0 | 0.00 | 0.00 | 0.00 | 56 | 1017.6 |
| 20260507145348 | 86 | 185 | 3.0 | 10.0 | 0.00 | 0.00 | 0.00 | 57 | 1017.6 |
| 20260507144848 | 85 | 257 | 5.0 | 10.0 | 0.00 | 0.00 | 0.00 | 60 | 1017.6 |
| 20260507144349 | 85 | 165 | 1.0 | 10.0 | 0.00 | 0.00 | 0.00 | 60 | 1017.6 |
| 20260507143850 | 85 | 259 | 3.0 | 12.0 | 0.00 | 0.00 | 0.00 | 60 | 1017.7 |
| 20260507143337 | 85 | 144 | 2.0 | 8.0 | 0.00 | 0.00 | 0.00 | 62 | 1017.6 |
| 20260507142835 | 84 | 139 | 2.0 | 8.0 | 0.00 | 0.00 | 0.00 | 62 | 1017.8 |
| 20260507142335 | 84 | 269 | 3.0 | 7.0 | 0.00 | 0.00 | 0.00 | 64 | 1017.9 |
| 20260507141838 | 83 | 297 | 2.0 | 7.0 | 0.00 | 0.00 | 0.00 | 65 | 1018.0 |
| 20260507141339 | 83 | 251 | 1.0 | 7.0 | 0.00 | 0.00 | 0.00 | 67 | 1017.9 |
| 20260507140904 | 83 | 165 | 1.0 | 6.0 | 0.00 | 0.00 | 0.00 | 68 | 1018.0 |
| 20260507140341 | 83 | 145 | 3.0 | 6.0 | 0.00 | 0.00 | 0.00 | 68 | 1018.1 |
| 20260507135843 | 82 | 125 | 1.0 | 7.0 | 0.00 | 0.00 | 0.00 | 69 | 1018.0 |
| 20260507135342 | 82 | 129 | 3.0 | 7.0 | 0.00 | 0.00 | 0.00 | 70 | 1018.0 |
| 20260507134823 | 82 | 153 | 2.0 | 8.0 | 0.00 | 0.00 | 0.00 | 70 | 1018.0 |
| 20260507134324 | 81 | 90 | 1.0 | 4.0 | 0.00 | 0.00 | 0.00 | 71 | 1018.0 |
| 20260507133823 | 81 | 190 | 1.0 | 4.0 | 0.00 | 0.00 | 0.00 | 71 | 1017.9 |
| 20260507133326 | 81 | 124 | 0.0 | 9.0 | 0.00 | 0.00 | 0.00 | 71 | 1018.0 |
| 20260507132834 | 81 | 168 | 2.0 | 4.0 | 0.00 | 0.00 | 0.00 | 72 | 1017.9 |
| 20260507132401 | 80 | 179 | 1.0 | 7.0 | 0.00 | 0.00 | 0.00 | 72 | 1017.8 |
| 20260507131843 | 80 | 111 | 3.0 | 7.0 | 0.00 | 0.00 | 0.00 | 72 | 1017.9 |
| 20260507131342 | 80 | 144 | 1.0 | 6.0 | 0.00 | 0.00 | 0.00 | 74 | 1017.9 |
| 20260507130840 | 79 | 169 | 2.0 | 8.0 | 0.00 | 0.00 | 0.00 | 74 | 1017.8 |
| 20260507130342 | 79 | 137 | 3.0 | 8.0 | 0.00 | 0.00 | 0.00 | 74 | 1017.9 |
| 20260507125837 | 78 | 144 | 3.0 | 7.0 | 0.00 | 0.00 | 0.00 | 75 | 1017.9 |
| 20260507125335 | 78 | 124 | 1.0 | 9.0 | 0.00 | 0.00 | 0.00 | 75 | 1017.7 |
| 20260507124833 | 78 | 196 | 3.0 | 9.0 | 0.00 | 0.00 | 0.00 | 75 | 1017.7 |
| 20260507124333 | 78 | 138 | 1.0 | 8.0 | 0.00 | 0.00 | 0.00 | 76 | 1017.7 |
| 20260507123834 | 77 | 155 | 3.0 | 8.0 | 0.00 | 0.00 | 0.00 | 76 | 1017.7 |
| 20260507123334 | 77 | 221 | 2.0 | 8.0 | 0.00 | 0.00 | 0.00 | 77 | 1017.7 |
| 20260507122834 | 76 | 138 | 2.0 | 5.0 | 0.00 | 0.00 | 0.00 | 78 | 1017.8 |
| 20260507122332 | 76 | 196 | 2.0 | 5.0 | 0.00 | 0.00 | 0.00 | 78 | 1017.7 |
| 20260507121831 | 75 | 192 | 0.0 | 5.0 | 0.00 | 0.00 | 0.00 | 80 | 1017.8 |
| 20260507121332 | 74 | 140 | 1.0 | 5.0 | 0.00 | 0.00 | 0.00 | 80 | 1017.8 |
| 20260507120835 | 74 | 165 | 1.0 | 4.0 | 0.00 | 0.00 | 0.00 | 81 | 1017.8 |
| 20260507120333 | 73 | 176 | 0.0 | 1.0 | 0.00 | 0.00 | 0.00 | 82 | 1017.8 |
| 20260507115832 | 72 | 180 | 0.0 | 1.0 | 0.00 | 0.00 | 0.00 | 83 | 1017.7 |
| 20260507115334 | 71 | 144 | 0.0 | 1.0 | 0.00 | 0.00 | 0.00 | 86 | 1017.8 |
| 20260507114842 | 69 | 152 | 0.0 | 0.0 | 0.00 | 0.00 | 0.00 | 88 | 1017.8 |
| 20260507114343 | 68 | 152 | 0.0 | 0.0 | 0.00 | 0.00 | 0.00 | 88 | 1017.8 |
| 20260507113844 | 68 | 152 | 0.0 | 0.0 | 0.00 | 0.00 | 0.00 | 88 | 1017.8 |
| 20260507113343 | 68 | 152 | 0.0 | 0.0 | 0.00 | 0.00 | 0.00 | 88 | 1017.8 |
| 20260507112850 | 68 | 152 | 0.0 | 0.0 | 0.00 | 0.00 | 0.00 | 88 | 1017.6 |
| 20260507112349 | 68 | 152 | 0.0 | 0.0 | 0.00 | 0.00 | 0.00 | 88 | 1017.6 |
| 20260507111853 | 67 | 152 | 0.0 | 0.0 | 0.00 | 0.00 | 0.00 | 88 | 1017.5 |
| 20260507111332 | 67 | 152 | 0.0 | 0.0 | 0.00 | 0.00 | 0.00 | 87 | 1017.4 |
| 20260507110837 | 67 | 152 | 0.0 | 0.0 | 0.00 | 0.00 | 0.00 | 87 | 1017.3 |
| 20260507110339 | 67 | 152 | 0.0 | 0.0 | 0.00 | 0.00 | 0.00 | 86 | 1017.3 |
| 20260507105842 | 67 | 152 | 0.0 | 0.0 | 0.00 | 0.00 | 0.00 | 86 | 1017.2 |
| 20260507105342 | 67 | 152 | 0.0 | 0.0 | 0.00 | 0.00 | 0.00 | 86 | 1017.2 |
| 20260507104843 | 67 | 152 | 0.0 | 0.0 | 0.00 | 0.00 | 0.00 | 86 | 1017.2 |
| 20260507104343 | 67 | 152 | 0.0 | 0.0 | 0.00 | 0.00 | 0.00 | 86 | 1017.2 |
| 20260507103845 | 67 | 152 | 0.0 | 0.0 | 0.00 | 0.00 | 0.00 | 86 | 1017.1 |
| 20260507103348 | 67 | 152 | 0.0 | 0.0 | 0.00 | 0.00 | 0.00 | 86 | 1017.1 |
| 20260507102855 | 67 | 152 | 0.0 | 0.0 | 0.00 | 0.00 | 0.00 | 85 | 1017.1 |
| 20260507102334 | 67 | 152 | 0.0 | 0.0 | 0.00 | 0.00 | 0.00 | 85 | 1017.0 |
| 20260507101838 | 67 | 152 | 0.0 | 0.0 | 0.00 | 0.00 | 0.00 | 85 | 1016.9 |
| 20260507101337 | 67 | 152 | 0.0 | 0.0 | 0.00 | 0.00 | 0.00 | 85 | 1016.9 |
| 20260507100907 | 67 | 152 | 0.0 | 0.0 | 0.00 | 0.00 | 0.00 | 85 | 1016.9 |
| 20260507100348 | 67 | 152 | 0.0 | 0.0 | 0.00 | 0.00 | 0.00 | 85 | 1017.0 |
| 20260507095851 | 67 | 152 | 0.0 | 0.0 | 0.00 | 0.00 | 0.00 | 84 | 1016.9 |
| 20260507095348 | 67 | 152 | 0.0 | 0.0 | 0.00 | 0.00 | 0.00 | 84 | 1016.9 |
| 20260507094826 | 66 | 152 | 0.0 | 0.0 | 0.00 | 0.00 | 0.00 | 83 | 1016.8 |
| 20260507094326 | 66 | 152 | 0.0 | 0.0 | 0.00 | 0.00 | 0.00 | 83 | 1016.7 |
| 20260507093855 | 66 | 152 | 0.0 | 0.0 | 0.00 | 0.00 | 0.00 | 83 | 1016.6 |
| 20260507093336 | 67 | 152 | 0.0 | 0.0 | 0.00 | 0.00 | 0.00 | 83 | 1016.6 |
| 20260507092835 | 67 | 152 | 0.0 | 0.0 | 0.00 | 0.00 | 0.00 | 83 | 1016.5 |
| 20260507092358 | 67 | 152 | 0.0 | 0.0 | 0.00 | 0.00 | 0.00 | 82 | 1016.5 |
| 20260507091839 | 67 | 152 | 0.0 | 0.0 | 0.00 | 0.00 | 0.00 | 82 | 1016.6 |
| 20260507091340 | 67 | 152 | 0.0 | 0.0 | 0.00 | 0.00 | 0.00 | 82 | 1016.5 |
| 20260507090840 | 67 | 152 | 0.0 | 0.0 | 0.00 | 0.00 | 0.00 | 82 | 1016.3 |
| 20260507090342 | 67 | 152 | 0.0 | 0.0 | 0.00 | 0.00 | 0.00 | 82 | 1016.4 |
| 20260507085847 | 67 | 152 | 0.0 | 0.0 | 0.00 | 0.00 | 0.00 | 82 | 1016.4 |
| 20260507085346 | 67 | 152 | 0.0 | 0.0 | 0.00 | 0.00 | 0.00 | 81 | 1016.3 |
| 20260507084826 | 67 | 152 | 0.0 | 0.0 | 0.00 | 0.00 | 0.00 | 81 | 1016.3 |
| 20260507084327 | 67 | 152 | 0.0 | 0.0 | 0.00 | 0.00 | 0.00 | 81 | 1016.5 |
| 20260507083828 | 67 | 152 | 0.0 | 0.0 | 0.00 | 0.00 | 0.00 | 81 | 1016.5 |
| 20260507083330 | 67 | 152 | 0.0 | 0.0 | 0.00 | 0.00 | 0.00 | 81 | 1016.5 |
| 20260507082901 | 67 | 152 | 0.0 | 0.0 | 0.00 | 0.00 | 0.00 | 80 | 1016.4 |
| 20260507082404 | 68 | 152 | 0.0 | 0.0 | 0.00 | 0.00 | 0.00 | 80 | 1016.4 |
| 20260507081846 | 68 | 152 | 0.0 | 0.0 | 0.00 | 0.00 | 0.00 | 80 | 1016.4 |
| 20260507081347 | 68 | 152 | 0.0 | 0.0 | 0.00 | 0.00 | 0.00 | 80 | 1016.4 |
| 20260507080847 | 68 | 152 | 0.0 | 0.0 | 0.00 | 0.00 | 0.00 | 79 | 1016.4 |
| 20260507080326 | 68 | 152 | 0.0 | 0.0 | 0.00 | 0.00 | 0.00 | 79 | 1016.2 |
| 20260507075832 | 68 | 152 | 0.0 | 0.0 | 0.00 | 0.00 | 0.00 | 79 | 1016.3 |
| 20260507075400 | 68 | 152 | 0.0 | 0.0 | 0.00 | 0.00 | 0.00 | 78 | 1016.3 |
| 20260507074910 | 68 | 152 | 0.0 | 0.0 | 0.00 | 0.00 | 0.00 | 78 | 1016.4 |
| 20260507074352 | 69 | 152 | 0.0 | 0.0 | 0.00 | 0.00 | 0.00 | 78 | 1016.4 |
| 20260507073828 | 69 | 152 | 0.0 | 0.0 | 0.00 | 0.00 | 0.00 | 78 | 1016.4 |
| 20260507073330 | 69 | 152 | 0.0 | 0.0 | 0.00 | 0.00 | 0.00 | 78 | 1016.5 |
| 20260507072831 | 69 | 152 | 0.0 | 0.0 | 0.00 | 0.00 | 0.00 | 77 | 1016.5 |
| 20260507072330 | 69 | 152 | 0.0 | 0.0 | 0.00 | 0.00 | 0.00 | 77 | 1016.6 |
| 20260507071859 | 70 | 152 | 0.0 | 0.0 | 0.00 | 0.00 | 0.00 | 77 | 1016.6 |
| 20260507071337 | 70 | 152 | 0.0 | 0.0 | 0.00 | 0.00 | 0.00 | 76 | 1016.7 |
| 20260507070838 | 70 | 152 | 0.0 | 0.0 | 0.00 | 0.00 | 0.00 | 75 | 1016.7 |
| 20260507070336 | 70 | 152 | 0.0 | 0.0 | 0.00 | 0.00 | 0.00 | 75 | 1016.8 |
| 20260507065907 | 70 | 152 | 0.0 | 0.0 | 0.00 | 0.00 | 0.00 | 75 | 1016.8 |